SCP
0 0 0 0 0 0 0 0 0 0 0 0 0 0 0 0 0 0 0 0 0 0 0 0 0 0 0 0 0 0 0 0 0 0 0 0 0 0 0 0 0 0 0 0 0 0 0 0 0
0 0 0 0 0 0 0 0 0 0 0 0 0 0 0 0 0 0 0 0 0 0 0 0 0 0 0 0 0 0 0 0 0 0 0 0 0 0 0 0 0 0 0 0 0 0 0 0 0
0 0 0 0 0 0 0 0 0 0 0 0 0 0 0 0 0 0 0 0 0 0 0 0 0 0 0 0 0 0 0 0 0 0 0 0 0 0 0 0 0 0 0 0 0 0 0 0 0
0 0 0 0 0 0 0 0 0 0 0 0 0 0 0 0 0 0 0 0 0 0 0 0 0 0 0 0 0 0 0 0 0 0 0 0 0 0 0 0 0 0 0 0 0 0 0 0 0
0 0 0 0 0 0 0 0 0 0 0 0 0 0 0 0 0 0 0 0 0 0 0 0 0 0 0 0 0 0 0 0 0 0 0 0 0 0 0 0 0 0 0 0 0 0 0 0 0
0 0 0 0 0 0 0 0 0 0 0 0 0 0 0 0 0 0 0 0 0 0 0 0 0 0 0 0 0 0 0 0 0 0 0 0 0 0 0 0 0 0 0 0 0 0 0 0 0
0 0 0 0 0 0 0 0 0 0 0 0 0 0 0 0 0 0 0 0 0 0 0 0 0 0 0 0 0 0 0 0 0 0 0 0 0 0 0 0 0 0 0 0 0 0 0 0 0
0 0 0 0 0 0 0 0 0 0 0 0 0 0 0 0 0 0 0 0 0 0 0 0 0 0 0 0 0 0 0 0 0 0 0 0 0 0 0 0 0 0 0 0 0 0 0 0 0
0 0 0 0 0 0 0 0 0 0 0 0 0 0 0 0 0 0 0 0 0 0 0 0 0 0 0 0 0 0 0 0 0 0 0 0 0 0 0 0 0 0 0 0 0 0 0 0 0
0 0 0 0 0 0 0 0 0 0 0 0 0 0 0 0 0 0 0 0 0 0 0 0 0 0 0 0 0 0 0 0 0 0 0 0 0 0 0 0 0 0 0 0 0 0 0 0 0
0 0 0 0 0 0 0 0 0 0 0 0 0 0 0 0 0 0 0 0 0 0 0 0 0 0 0 0 0 0 0 0 0 0 0 0 0 0 0 0 0 0 0 0 0 0 0 0 0
0 0 0 0 0 0 0 0 0 0 0 0 0 0 0 0 0 0 0 0 0 0 0 0 0 0 0 0 0 0 0 0 0 0 0 0 0 0 0 0 0 0 0 0 0 0 0 0 0
0 0 0 0 0 0 0 0 0 0 0 0 0 0 0 0 0 0 0 0 0 0 0 0 0 0 0 0 0 0 0 0 0 0 0 0 0 0 0 0 0 0 0 0 0 0 0 0 0
0 0 0 0 0 0 0 0 0 0 0 0 0 0 0 0 0 0 0 0 0 0 0 0 0 0 0 0 0 0 0 0 0 0 0 0 0 0 0 0 0 0 0 0 0 0 0 0 0
0 0 0 0 0 0 0 0 0 0 0 0 0 0 0 0 0 0 0 0 0 0 0 0 0 0 0 0 0 0 0 0 0 0 0 0 0 0 0 0 0 0 0 0 0 0 0 0 0
0 0 0 0 0 0 0 0 0 0 0 0 0 0 0 0 0 0 0 0 0 0 0 0 0 0 0 0 0 0 0 0 0 0 0 0 0 0 0 0 0 0 0 0 0 0 0 0 0
0 0 0 0 0 0 0 0 0 0 0 0 0 0 0 0 0 0 0 0 0 0 0 0 0 0 0 0 0 0 0 0 0 0 0 0 0 0 0 0 0 0 0 0 0 0 0 0 0
0 0 0 0 0 0 0 0 0 0 0 0 0 0 0 0 0 0 0 0 0 0 0 0 0 0 0 0 0 0 0 0 0 0 0 0 0 0 0 0 0 0 0 0 0 0 0 0 0
0 0 0 0 0 0 0 0 0 0 0 0 0 0 0 0 0 0 0 0 0 0 0 0 0 0 0 0 0 0 0 0 0 0 0 0 0 0 0 0 0 0 0 0 0 0 0 0 0
0 0 0 0 0 0 0 0 0 0 0 0 0 0 0 0 0 0 0 0 0 0 0 0 0 0 0 0 0 0 0 0 0 0 0 0 0 0 0 0 0 0 0 0 0 0 0 0 0
0 0 0 0 0 0 0 0 0 0 0 0 0 0 0 0 0 0 0 0 0 0 0 0 0 0 0 0 0 0 0 0 0 0 0 0 0 0 0 0 0 0 0 0 0 0 0 0 0
0 0 0 0 0 0 0 0 0 0 0 0 0 0 0 0 0 0 0 0 0 0 0 0 0 0 0 0 0 0 0 0 0 0 0 0 0 0 0 0 0 0 0 0 0 0 0 0 0
0 0 0 0 0 0 0 0 0 0 0 0 0 0 0 0 0 0 0 0 0 0 0 0 0 0 0 0 0 0 0 0 0 0 0 0 0 0 0 0 0 0 0 0 0 0 0 0 0
0 0 0 0 0 0 0 0 0 0 0 0 0 0 0 0 0 0 0 0 0 0 0 0 0 0 0 0 0 0 0 0 0 0 0 0 0 0 0 0 0 0 0 0 0 0 0 0 0
0 0 0 0 0 0 0 0 0 0 0 0 0 0 0 0 0 0 0 0 0 0 0 0 0 0 0 0 0 0 0 0 0 0 0 0 0 0 0 0 0 0 0 0 0 0 0 0 0
0 0 0 0 0 0 0 0 0 0 0 0 0 0 0 0 0 0 0 0 0 0 0 0 0 0 0 0 0 0 0 0 0 0 0 0 0 0 0 0 0 0 0 0 0 0 0 0 0
0 0 0 0 0 0 0 0 0 0 0 0 0 0 0 0 0 0 0 0 0 0 0 0 0 0 0 0 0 0 0 0 0 0 0 0 0 0 0 0 0 0 0 0 0 0 0 0 0
0 0 0 0 0 0 0 0 0 0 0 0 0 0 0 0 0 0 0 0 0 0 0 0 0 0 0 0 0 0 0 0 0 0 0 0 0 0 0 0 0 0 0 0 0 0 0 0 0
0 0 0 0 0 0 0 0 0 0 0 0 0 0 0 0 0 0 0 0 0 0 0 0 0 0 0 0 0 0 0 0 0 0 0 0 0 0 0 0 0 0 0 0 0 0 0 0 0
0 0 0 0 0 0 0 0 0 0 0 0 0 0 0 0 0 0 0 0 0 0 0 0 0 0 0 0 0 0 0 0 0 0 0 0 0 0 0 0 0 0 0 0 0 0 0 0 0
Wind_Speed
8 6 2 1 3 4 2 2 1 2 3 3 4 5 5 3 1 1 1 2 2 2 2 4 6 6 6 6 6 7 7 8 8 8 7 8 8 8 8 8 8 8 9 9 10 11 12 13 14
6 5 1 2 4 3 2 2 3 2 3 3 5 5 5 4 2 2 0 1 2 2 2 4 7 7 6 6 6 6 6 7 7 7 7 7 7 8 8 8 8 8 8 9 10 12 12 13 13
6 3 1 3 3 1 1 1 3 4 3 3 4 4 4 2 1 1 1 2 2 1 1 4 7 7 7 6 6 5 5 6 6 6 6 7 7 7 8 8 7 8 8 9 10 11 11 12 12
3 1 3 4 2 1 1 2 3 4 3 5 4 4 3 2 1 1 3 3 2 1 1 3 7 7 7 6 6 5 5 5 5 5 5 6 7 7 7 7 7 8 8 9 10 10 10 11 11
1 3 4 3 2 1 1 2 3 3 3 4 4 4 3 3 4 4 4 4 2 1 1 2 6 7 6 6 5 5 4 4 4 4 4 5 6 7 8 7 8 8 8 9 9 9 10 10 10
3 4 4 2 2 2 2 3 4 5 4 4 4 4 2 2 3 3 3 3 2 2 1 2 5 6 6 5 5 4 3 3 4 4 4 4 5 7 7 7 8 8 8 8 8 8 10 10 10
3 3 2 1 1 1 1 2 4 4 4 2 3 4 1 1 1 3 4 3 2 2 2 2 2 3 4 4 4 4 3 3 3 3 4 4 5 6 6 6 7 8 8 8 7 7 9 10 9
3 4 2 0 1 1 1 2 3 4 3 3 3 4 3 2 3 5 5 4 3 3 2 2 2 2 2 1 3 3 3 3 3 3 4 4 5 5 6 6 7 7 7 7 7 7 8 8 8
3 4 0 2 3 2 2 2 2 3 5 3 3 3 3 6 6 5 4 3 3 2 2 1 1 1 1 1 2 2 2 2 2 2 3 3 2 2 3 4 6 6 7 6 6 6 6 6 7
3 3 4 3 4 4 3 3 3 4 4 3 5 6 7 7 6 5 3 2 1 1 1 1 1 1 1 1 2 2 2 2 2 2 2 2 2 1 2 3 5 6 6 6 5 5 5 4 3
3 4 2 1 3 5 4 3 2 6 3 3 6 8 8 6 5 4 3 2 2 1 1 1 1 1 1 1 1 1 1 1 1 1 1 2 2 1 1 1 2 2 3 2 3 3 2 3 2
3 2 2 2 3 4 5 4 3 3 3 5 8 10 8 7 5 5 4 3 2 2 1 1 1 1 0 0 1 1 0 0 0 0 1 1 1 1 1 1 1 1 1 2 2 2 2 3 3
2 0 1 3 4 4 5 4 4 2 5 8 9 8 8 6 4 3 3 3 2 2 1 1 1 1 1 1 0 0 0 0 0 0 1 2 2 1 1 1 1 1 1 2 2 2 2 3 2
2 3 3 3 4 3 5 3 3 3 7 8 9 7 6 5 5 3 3 3 3 2 1 1 1 1 1 1 0 0 0 0 1 1 1 2 2 2 2 2 2 1 2 2 2 3 3 2 2
3 5 4 2 3 2 5 2 1 5 7 8 7 6 5 4 4 4 4 3 3 2 2 1 2 1 1 1 0 0 0 1 1 1 1 2 2 2 3 2 2 2 2 3 3 3 3 3 3
4 4 1 2 2 3 5 2 3 7 8 7 6 6 5 3 3 3 3 3 3 2 2 1 2 2 1 1 0 1 1 1 1 1 2 2 3 3 3 3 2 2 2 2 3 3 3 3 3
3 1 2 2 3 3 3 3 3 7 8 7 6 6 5 4 3 3 3 3 3 3 2 2 1 2 1 1 1 1 1 2 1 2 2 2 3 4 3 3 2 3 3 3 3 3 3 3 2
3 2 2 4 3 4 3 3 4 7 8 7 6 6 6 6 6 5 4 4 3 2 2 2 1 1 1 2 2 2 3 2 2 2 2 2 3 3 3 3 3 3 3 3 3 4 3 2 2
4 4 3 4 3 4 4 3 5 7 7 7 7 7 7 7 5 3 4 4 4 3 2 2 2 1 1 1 2 2 1 1 2 2 2 3 3 3 3 3 3 3 3 3 4 3 4 3 2
4 2 2 2 2 3 2 2 3 6 9 9 9 9 8 6 4 4 4 4 4 4 3 3 2 2 1 1 1 2 2 1 1 2 2 2 2 2 3 3 3 3 3 3 3 3 3 2 2
3 5 4 3 1 3 3 2 2 4 4 5 6 6 7 9 7 6 5 5 4 5 4 4 3 2 2 2 2 3 3 2 2 2 1 2 2 2 2 3 3 3 3 3 3 3 4 2 1
3 5 5 4 4 1 2 2 5 4 4 7 8 8 8 8 7 6 6 6 6 6 4 4 3 2 2 2 3 4 3 2 1 1 1 2 3 3 3 3 3 3 3 3 3 3 2 3 2
4 2 4 4 4 2 1 1 7 1 5 9 10 10 10 9 9 9 9 8 6 5 5 4 3 2 2 3 3 3 2 2 2 2 2 2 2 2 2 3 3 3 2 3 3 2 2 2 2
4 6 6 6 5 0 3 3 6 5 9 7 9 10 11 10 10 9 7 6 5 5 4 4 4 3 2 3 3 3 4 3 3 2 2 1 1 2 2 2 2 2 2 2 2 2 2 2 2
5 7 4 4 3 5 2 3 9 7 7 9 10 11 11 10 10 9 9 8 7 7 6 5 5 4 3 3 3 3 3 3 4 3 2 2 1 1 1 2 2 2 2 2 2 2 1 2 2
4 8 8 5 5 4 1 5 8 5 4 4 6 7 8 9 10 10 11 10 9 8 7 7 6 5 4 4 4 3 3 3 2 3 2 2 2 1 1 2 2 1 1 2 2 2 1 1 2
5 3 6 7 2 0 4 6 8 2 1 1 4 5 7 9 10 10 10 10 9 9 9 8 8 6 5 5 4 3 3 3 3 3 2 2 2 2 2 2 2 2 2 2 2 2 1 1 1
5 7 5 6 6 3 4 4 5 4 3 3 4 6 7 7 9 9 9 9 9 9 8 7 7 7 6 5 5 4 4 3 3 3 3 3 2 2 3 2 2 2 2 2 2 2 1 2 1
4 4 5 5 5 6 3 7 6 7 6 6 6 6 7 8 9 9 8 8 8 7 7 7 7 6 6 6 5 4 4 4 4 3 3 3 3 3 3 2 2 2 2 2 2 2 2 2 2
4 6 7 5 3 4 4 9 4 4 5 5 5 4 5 6 7 6 6 6 7 7 7 7 7 7 7 6 5 5 4 4 4 4 3 3 3 3 3 3 3 2 2 2 3 2 2 2 2
Wind_Direction
151 146 141 90 48 45 10 337 24 36 42 44 66 80 89 69 103 157 261 144 145 146 173 167 159 153 145 136 132 131 131 132 131 132 132 131 130 131 132 131 133 135 132 127 127 126 126 129 131
147 156 171 63 69 49 335 351 58 51 119 109 74 69 66 55 47 98 115 173 150 163 173 166 161 159 153 145 140 135 131 130 130 129 132 131 130 134 135 136 138 139 135 132 133 131 131 130 132
161 192 70 63 71 138 227 54 94 88 96 66 66 60 68 68 60 145 197 144 100 100 145 173 161 161 156 153 147 138 130 126 126 125 130 135 133 135 138 137 136 138 136 133 133 132 134 135 135
157 77 52 60 49 291 182 134 118 105 60 45 74 61 54 51 110 144 120 115 101 93 120 173 161 160 158 154 150 144 135 133 132 130 131 138 141 144 142 138 136 134 134 134 135 136 138 138 136
84 74 56 40 12 3 90 127 109 83 60 55 74 75 33 12 71 100 105 112 119 113 117 158 156 155 153 151 149 148 142 140 145 145 143 146 145 143 140 137 133 131 130 131 135 139 142 139 139
61 64 67 33 6 27 62 98 94 81 78 71 72 77 37 24 81 101 98 103 118 122 130 140 152 146 142 144 144 142 141 142 145 147 144 144 147 144 143 142 138 135 132 132 138 145 152 150 147
97 81 87 114 66 65 133 101 101 102 85 80 93 87 58 0 77 92 81 81 85 88 88 83 103 128 137 142 142 146 146 145 141 136 133 135 144 147 147 145 139 134 133 136 143 141 151 151 147
131 93 49 25 130 182 141 90 89 100 97 96 92 118 167 207 98 85 71 64 64 69 72 66 72 74 79 102 134 133 133 125 116 114 115 121 134 147 153 149 146 142 139 142 145 140 138 146 148
106 75 124 211 169 177 148 103 72 79 98 79 71 110 138 126 110 91 71 51 41 65 60 67 65 69 70 62 106 107 118 104 91 93 107 100 88 109 141 149 152 151 154 153 149 145 145 148 146
99 122 216 204 167 158 146 125 139 102 90 70 66 78 108 119 122 123 125 126 106 72 59 86 107 105 89 79 59 42 44 49 48 47 55 67 76 91 123 140 152 150 152 152 146 142 136 126 120
143 178 206 158 142 140 136 124 112 121 131 166 146 140 135 135 135 144 155 156 175 152 107 115 140 125 97 59 56 43 35 39 48 59 67 72 69 72 84 101 145 140 138 126 123 117 114 110 116
143 213 176 151 127 129 135 128 112 145 178 153 148 146 144 152 163 172 171 161 139 115 125 97 96 106 92 63 64 66 41 20 20 67 109 106 96 84 97 117 129 122 122 119 116 119 115 114 123
126 101 85 116 101 111 104 113 126 118 111 121 129 139 153 162 168 169 157 143 133 148 155 116 91 108 93 74 15 115 203 241 232 112 122 128 131 125 108 116 121 132 125 125 126 121 118 113 112
124 90 77 93 101 105 113 100 94 131 129 129 137 149 161 168 166 150 149 152 161 176 164 130 101 109 99 90 53 26 102 176 140 118 115 124 130 129 121 107 93 103 117 122 119 120 115 107 114
86 73 42 61 92 118 109 64 162 156 142 143 151 158 165 176 172 173 177 172 174 173 151 140 135 103 100 99 53 76 68 100 109 111 101 109 120 124 123 115 106 110 115 116 113 108 103 106 106
57 64 58 276 122 140 122 211 208 156 151 156 162 166 170 184 189 193 184 174 164 156 147 153 134 113 109 99 59 53 82 99 108 108 106 109 116 120 116 110 108 109 111 118 118 110 105 97 100
44 108 232 261 191 156 146 211 200 164 160 167 174 177 177 187 201 195 184 181 170 168 158 142 104 107 106 89 68 66 76 80 91 101 102 107 111 113 112 112 112 111 105 112 123 109 113 115 111
204 191 223 227 215 161 179 218 188 171 171 179 186 187 188 196 208 196 180 174 160 158 155 151 125 108 97 78 69 60 56 49 59 84 94 100 104 108 110 110 107 106 106 106 111 113 107 121 124
164 172 230 245 206 163 198 217 197 178 179 189 198 198 200 210 212 187 175 166 152 154 154 162 158 143 103 82 79 77 67 58 57 73 85 92 102 108 111 113 108 108 114 123 125 120 114 109 110
154 176 246 308 145 146 180 257 217 192 198 197 198 202 202 203 198 191 183 174 171 175 175 170 175 161 143 123 116 116 108 92 86 72 67 73 94 111 125 122 120 116 116 114 119 120 116 117 112
187 191 203 194 84 64 104 326 240 222 203 205 207 203 201 200 197 195 189 187 179 183 187 184 182 168 156 132 102 90 72 59 61 60 64 55 77 88 102 119 121 121 127 128 127 132 134 138 115
224 211 178 157 126 262 129 258 272 221 212 214 214 204 202 200 191 190 187 187 191 193 183 175 166 156 145 130 130 134 130 128 135 117 94 65 68 81 89 103 114 117 120 127 135 126 136 141 148
205 145 129 128 128 76 44 164 284 197 229 231 219 209 203 196 191 192 193 192 191 182 174 166 150 153 147 136 144 138 130 134 114 98 92 76 66 75 89 101 110 116 126 133 130 125 130 139 146
131 76 61 53 72 9 226 176 271 224 219 223 216 208 201 194 192 193 190 180 177 171 167 158 154 171 163 149 145 147 147 145 130 123 118 97 82 73 82 105 109 113 123 127 130 128 133 144 141
98 95 49 12 12 253 228 195 248 241 222 212 211 209 200 190 188 187 184 182 179 175 176 171 169 180 173 159 158 164 162 155 156 159 152 139 117 106 92 111 113 117 125 129 127 128 139 150 156
160 140 154 182 211 268 257 230 254 259 242 226 205 196 190 185 187 190 190 187 186 184 181 178 181 185 178 172 173 169 162 156 159 160 156 156 154 157 125 124 126 120 119 130 132 133 160 143 161
136 157 157 130 146 254 275 282 299 323 343 202 179 180 193 192 190 191 188 188 187 185 187 187 185 186 184 181 170 166 164 158 158 152 150 150 149 143 124 119 120 116 109 109 119 115 120 117 127
127 141 103 118 145 227 284 275 256 270 261 242 199 200 206 193 187 186 187 190 189 187 185 183 184 187 185 180 179 176 172 167 159 150 152 152 149 134 126 125 119 115 114 116 111 109 106 112 105
101 91 103 115 148 156 221 264 230 219 216 216 219 209 200 190 187 187 188 188 183 177 177 182 183 179 178 182 179 168 166 161 153 153 158 157 149 143 142 140 133 125 117 114 112 108 103 102 88
137 155 147 150 199 170 178 261 275 225 215 204 215 210 197 189 186 182 177 172 175 180 183 185 184 183 184 177 170 169 162 154 157 161 162 152 149 148 146 140 134 137 133 130 130 128 111 108 106